[[{"header":{"parameterUnit":"m.s-1","parameterCategory":1,"la1":30.2992,"la2":30.254,"lo1":-89.0895,"lo2":-89.0443,"dy":0.0025,"dx":0.0025,"nx":19,"ny":19,"refTime":"2026-05-06T09:00:00:Z","depth":0,"parameterNumber":2,"parameterNumberName":"U-component_of_WINDS"},"data":[0,0,0,1.0632,1.0635,1.0788,1.0788,1.098,1.0982,0,0,0,0,0,0,0,0,0,0,0,1.0581,1.0582,1.0632,1.0635,1.0788,1.0788,1.098,1.0982,0,0,0,0,0,0,0,0,0,0,0,1.058,1.0581,1.0583,1.0636,1.0788,1.0789,1.098,1.0867,0,0,0,0,0,0,0,0,0,0,1.0719,1.0665,1.0581,1.0583,1.0637,1.0787,1.0789,1.0861,1.0874,1.0908,0,1.0934,0,1.0961,1.0994,1.0995,0,0,0,1.0641,1.0655,1.0701,1.0583,1.0638,1.0787,1.072,1.0868,1.0882,1.0925,1.0937,1.0945,1.0964,1.0995,1.0996,1.1171,1.1171,0,0,1.0632,1.0606,1.0691,1.071,1.0681,1.0716,1.0725,1.0877,1.089,1.0938,1.0949,1.0967,1.0997,1.0998,1.117,1.1171,0,0,0,1.0604,1.06,1.0642,1.0701,1.0729,1.072,1.0731,1.0883,1.0899,1.0951,1.0969,1.0998,1.1,1.117,1.117,1.1171,0,0,0,1.06,1.0583,1.0638,1.0624,1.0726,1.0807,1.0734,1.0889,1.0907,1.0969,1.0998,1.1002,1.1169,1.117,1.117,1.1177,0,0,0,1.0573,1.058,1.06,1.0622,1.0686,1.0805,1.083,1.0893,1.0918,1.0995,1.1002,1.1169,1.117,1.1169,1.1175,1.1215,0,0,0,1.0538,1.06,1.0599,1.0676,1.0685,1.0803,1.0829,1.092,1.0986,1.0999,1.1169,1.117,1.1168,1.1174,1.1213,1.1244,1.1254,0,0,1.0601,1.0606,1.0654,1.0658,1.0769,1.0782,1.0896,1.0983,1.1017,1.1119,1.1123,1.117,1.1175,1.1215,1.1318,1.1325,0,0,0,1.0665,1.0699,1.0734,1.0794,1.0861,1.092,1.0992,1.1025,1.1112,1.1062,1.1196,1.12,1.1224,1.1241,1.1247,1.1271,1.1176,1.1176,1.1176,1.0718,1.0755,1.0837,1.0892,1.0951,1.1025,1.1077,1.1135,1.1157,1.1188,1.1219,1.1276,1.1294,1.1299,1.1323,1.1238,1.1238,1.1238,1.1238,1.0815,1.087,1.0896,1.0984,1.1025,1.1101,1.1176,1.1189,1.1269,1.1256,1.128,1.1264,1.1306,1.1329,1.1238,1.1238,1.1238,1.1238,1.1238,1.0854,1.0887,1.0924,1.1016,1.1083,1.1139,1.1213,1.1248,1.1282,1.1306,1.1343,1.1343,1.1348,1.132,1.1321,1.1321,1.1321,1.1321,1.1321,1.0881,1.0922,1.0979,1.1054,1.1098,1.1161,1.1237,1.1283,1.1343,1.1363,1.1364,1.1384,1.1302,1.1282,1.1325,1.1324,1.1324,1.1323,1.1323,1.0967,1.0953,1.1039,1.1083,1.1177,1.1242,1.1285,1.1376,1.1419,1.1455,1.147,1.1404,1.1413,1.1408,1.1391,1.146,1.146,1.146,1.146,1.1,1.1007,1.1104,1.1173,1.1244,1.1291,1.1393,1.1453,1.1515,1.1545,1.154,1.152,1.1514,1.1527,1.152,1.1505,1.1601,1.1601,1.1601,1.1056,1.1072,1.1149,1.1205,1.1281,1.1347,1.1443,1.1524,1.1591,1.1608,1.1569,1.1563,1.1532,1.152,1.1536,1.1524,1.1497,0,0]},{"header":{"parameterUnit":"m.s-1","parameterCategory":1,"la1":30.2992,"la2":30.254,"lo1":-89.0895,"lo2":-89.0443,"dy":0.0025,"dx":0.0025,"nx":19,"ny":19,"refTime":"2026-05-06T09:00:00:Z","depth":0,"parameterNumber":3,"parameterNumberName":"V-component_of_WINDS"},"data":[0,0,0,-0.3312,-0.3308,-0.3095,-0.3094,-0.2829,-0.2827,0,0,0,0,0,0,0,0,0,0,0,-0.3383,-0.3381,-0.3313,-0.3308,-0.3095,-0.3094,-0.283,-0.2827,0,0,0,0,0,0,0,0,0,0,0,-0.3384,-0.3382,-0.338,-0.3307,-0.3096,-0.3094,-0.283,-0.2987,0,0,0,0,0,0,0,0,0,0,-0.3192,-0.3266,-0.3382,-0.338,-0.3306,-0.3096,-0.3094,-0.2995,-0.2978,-0.293,0,-0.2893,0,-0.2856,-0.281,-0.2809,0,0,0,-0.3301,-0.328,-0.3217,-0.338,-0.3304,-0.3096,-0.3189,-0.2985,-0.2966,-0.2907,-0.2889,-0.2878,-0.2852,-0.2809,-0.2807,-0.2563,-0.2562,0,0,-0.3313,-0.3348,-0.323,-0.3204,-0.3241,-0.3196,-0.3183,-0.2973,-0.2954,-0.2888,-0.2872,-0.2847,-0.2807,-0.2805,-0.2563,-0.2562,0,0,0,-0.3351,-0.3356,-0.3297,-0.3216,-0.3177,-0.319,-0.3175,-0.2963,-0.2941,-0.2869,-0.2844,-0.2805,-0.2802,-0.2564,-0.2563,-0.2557,0,0,0,-0.3358,-0.3378,-0.3303,-0.3322,-0.3181,-0.3068,-0.317,-0.2956,-0.2931,-0.2846,-0.2805,-0.28,-0.2565,-0.2564,-0.2559,-0.2547,0,0,0,-0.3394,-0.3383,-0.3355,-0.3324,-0.3235,-0.3071,-0.3036,-0.295,-0.2916,-0.2809,-0.2799,-0.2566,-0.2564,-0.2561,-0.255,-0.2493,0,0,0,-0.3442,-0.3351,-0.3356,-0.3244,-0.3237,-0.307,-0.3037,-0.291,-0.2818,-0.2804,-0.2565,-0.2563,-0.2562,-0.2552,-0.2495,-0.245,-0.2435,0,0,-0.3346,-0.3341,-0.3272,-0.327,-0.3112,-0.31,-0.2939,-0.2819,-0.2775,-0.2635,-0.2629,-0.2559,-0.255,-0.2493,-0.2343,-0.2331,0,0,0,-0.3253,-0.3204,-0.3155,-0.3071,-0.298,-0.29,-0.2803,-0.2758,-0.2638,-0.2712,-0.2522,-0.2516,-0.2481,-0.2457,-0.2448,-0.2415,-0.2555,-0.2555,-0.2555,-0.3166,-0.3118,-0.3001,-0.2928,-0.2846,-0.2748,-0.2676,-0.2599,-0.2571,-0.2528,-0.2485,-0.24,-0.2374,-0.2367,-0.2333,-0.2459,-0.2459,-0.2459,-0.2459,-0.302,-0.2942,-0.2912,-0.2788,-0.2737,-0.263,-0.2531,-0.2516,-0.2407,-0.2428,-0.2394,-0.242,-0.2356,-0.2323,-0.2458,-0.2458,-0.2458,-0.2458,-0.2458,-0.2956,-0.291,-0.2861,-0.2735,-0.2643,-0.2571,-0.2469,-0.2426,-0.2383,-0.2351,-0.23,-0.23,-0.2293,-0.233,-0.233,-0.233,-0.2329,-0.2329,-0.2329,-0.2908,-0.2853,-0.2774,-0.2672,-0.2613,-0.2529,-0.243,-0.2369,-0.229,-0.2266,-0.2265,-0.2241,-0.236,-0.239,-0.2324,-0.2325,-0.2325,-0.2326,-0.2326,-0.2775,-0.2799,-0.2678,-0.2619,-0.2495,-0.2406,-0.2353,-0.2233,-0.2176,-0.2127,-0.2111,-0.2207,-0.2196,-0.2204,-0.2228,-0.2123,-0.2123,-0.2123,-0.2123,-0.2719,-0.2712,-0.2578,-0.2487,-0.2392,-0.2333,-0.2194,-0.2116,-0.2039,-0.2,-0.2009,-0.2038,-0.2048,-0.2031,-0.2042,-0.2064,-0.1921,-0.192,-0.192,-0.2634,-0.2615,-0.2507,-0.2436,-0.2336,-0.2251,-0.2119,-0.2012,-0.1929,-0.1911,-0.1968,-0.1977,-0.2023,-0.2041,-0.2022,-0.2041,-0.208,0,0]}]]